Flag for U.S.A. Weather past 2 weeks in Ann Arbor, Michigan, U.S.A.

Now
73 °F

Partly sunny.


Feels Like: 77 °F
Forecast: 58 / 79 °F
Wind: 9 mph from Southeast

Location: Ann Arbor Municipal Airport

Current Time: Aug 29, 2014 at 2:44:02 PM

Latest Report: Aug 29, 2014 at 1:53 PM


Visibility: 10 mi

Pressure: 30.09 "Hg

Humidity: 55%

Dew point: 56 °F

Location of Ann ArborLocation

Historic Weather in Ann Arbor — Graph

°F

Ann Arbor temperature yesterday

Maximum temperature yesterday: 74 °F (at 2:53 PM)
Minimum temperature yesterday: 56 °F (at 10:53 PM)
Average temperature yesterday: 65 °F

Past Weeks' High & Low Weather Summary

 TemperatureHumidityPressure
High89 °F (Aug 26, 1:53 PM)94% (Aug 20, 6:00 AM)30.16 "Hg (Aug 20, 6:00 AM)
Low43 °F (Aug 15, 6:53 AM)34% (Aug 15, 3:53 PM)29.74 "Hg (Aug 19, 3:53 PM)
Average70 °F75%29.99 "Hg
* Reported Aug 14 12:53 PM — Aug 29 12:53 PM, Ann Arbor, Weather by CustomWeather, © 2014

Note: Actual official high and low records may vary slightly from our data, if they occured in-between our weather recording intervals... More about our weather records

Advertising

Ann Arbor weather history for previous 24 hours

 ConditionsComfort  
Time TempWeatherWind HumidityBarometerVisibility
12:53 PM
Aug 29
70 °FSunny.7 mph57%30.11 "Hg10 mi
11:53 AM70 °FScattered clouds.9 mph55%30.12 "Hg10 mi
10:53 AM67 °FSunny.8 mph61%30.12 "Hg10 mi
9:53 AM65 °FSunny.8 mph66%30.13 "Hg10 mi
8:53 AM63 °FSunny.5 mph75%30.13 "Hg10 mi
7:53 AM59 °FClear.3 mph84%30.13 "Hg10 mi
6:53 AM57 °FClear.No wind87%30.11 "Hg10 mi
5:53 AM58 °FPassing clouds.3 mph84%30.10 "Hg10 mi
4:53 AM57 °FClear.No wind83%30.10 "Hg10 mi
3:53 AM57 °FClear.No wind83%30.11 "Hg10 mi
2:53 AM59 °FClear.No wind81%30.12 "Hg10 mi
1:53 AM57 °FClear.3 mph87%30.13 "Hg10 mi
12:53 AM60 °FClear.5 mph78%30.14 "Hg10 mi
11:53 PM
Aug 28
57 °FClear.No wind87%30.14 "Hg10 mi
10:53 PM56 °FClear.No wind84%30.13 "Hg10 mi
9:53 PM60 °FClear.No wind80%30.13 "Hg10 mi
8:53 PM63 °FSunny.3 mph75%30.12 "Hg10 mi
7:53 PM67 °FSunny.5 mph71%30.11 "Hg10 mi
6:53 PM73 °FSunny.No wind48%30.09 "Hg10 mi
5:53 PM74 °FSunny.No wind46%30.09 "Hg10 mi
4:53 PM74 °FSunny.3 mph46%30.10 "Hg10 mi
3:53 PM73 °FSunny.7 mph46%30.11 "Hg10 mi
2:53 PM74 °FScattered clouds.5 mph46%30.12 "Hg10 mi
Weather by CustomWeather, © 2014

See weather overviewHow to use our weather pages